Time,TemperatureF,DewpointF,PressureIn,WindDirection,WindDirectionDegrees,WindSpeedMPH,WindSpeedGustMPH,Humidity,HourlyPrecipIn,Conditions,Clouds,dailyrainin,SoftwareType,DateUTC
2013-03-13 00:00:00,51.7,50.6,29.71,SSW,212,0.0,8.0,96,0.00,,,0.39,WUHU216DAVISVP2,2013-03-13 04:00:00,
2013-03-13 00:05:00,51.5,50.4,29.71,SSW,212,1.8,8.0,96,0.00,,,0.00,WUHU216DAVISVP2,2013-03-13 04:05:00,
2013-03-13 00:10:00,51.4,50.3,29.72,SSW,212,2.5,5.0,96,0.00,,,0.00,WUHU216DAVISVP2,2013-03-13 04:10:00,
2013-03-13 00:15:00,51.3,50.2,29.72,SSW,212,1.0,5.0,96,0.00,,,0.00,WUHU216DAVISVP2,2013-03-13 04:15:00,
2013-03-13 00:20:00,50.9,49.8,29.73,WNW,284,6.0,7.0,96,0.00,,,0.00,WUHU216DAVISVP2,2013-03-13 04:20:00,
2013-03-13 00:25:00,50.6,49.2,29.73,WNW,294,6.4,11.0,95,0.00,,,0.00,WUHU216DAVISVP2,2013-03-13 04:25:00,
2013-03-13 00:30:00,49.7,47.4,29.73,WNW,292,5.5,15.0,92,0.00,,,0.00,WUHU216DAVISVP2,2013-03-13 04:30:00,
2013-03-13 00:35:00,49.0,46.4,29.73,WNW,284,7.8,15.0,91,0.00,,,0.00,WUHU216DAVISVP2,2013-03-13 04:35:00,
2013-03-13 00:40:00,48.2,45.4,29.73,NW,305,7.0,15.0,90,0.00,,,0.00,WUHU216DAVISVP2,2013-03-13 04:40:00,
2013-03-13 00:45:00,47.5,44.7,29.73,NW,310,9.0,15.0,90,0.00,,,0.00,WUHU216DAVISVP2,2013-03-13 04:45:00,
2013-03-13 00:50:00,47.0,44.2,29.74,NW,305,4.7,14.0,90,0.00,,,0.00,WUHU216DAVISVP2,2013-03-13 04:50:00,
2013-03-13 00:55:00,46.7,43.9,29.74,West,278,8.0,14.0,90,0.00,,,0.00,WUHU216DAVISVP2,2013-03-13 04:55:00,
2013-03-13 01:00:00,46.3,43.8,29.74,WNW,296,11.0,14.0,91,0.00,,,0.00,WUHU216DAVISVP2,2013-03-13 05:00:00,
2013-03-13 01:05:00,45.9,43.4,29.74,WNW,296,5.0,12.0,91,0.00,,,0.00,WUHU216DAVISVP2,2013-03-13 05:05:00,
2013-03-13 01:10:00,45.5,42.7,29.74,WNW,286,10.0,13.0,90,0.00,,,0.00,WUHU216DAVISVP2,2013-03-13 05:10:00,
2013-03-13 01:15:00,45.3,42.5,29.74,NW,323,4.0,13.0,90,0.00,,,0.00,WUHU216DAVISVP2,2013-03-13 05:15:00,
2013-03-13 01:20:00,45.0,42.2,29.74,WNW,301,4.0,13.0,90,0.00,,,0.00,WUHU216DAVISVP2,2013-03-13 05:20:00,
2013-03-13 01:25:00,44.8,41.5,29.74,NW,310,5.8,13.0,88,0.00,,,0.00,WUHU216DAVISVP2,2013-03-13 05:25:00,
2013-03-13 01:30:00,44.8,41.2,29.74,NW,320,4.6,12.0,87,0.00,,,0.00,WUHU216DAVISVP2,2013-03-13 05:30:00,
2013-03-13 01:35:00,44.6,40.7,29.74,NW,315,7.1,13.0,86,0.00,,,0.00,WUHU216DAVISVP2,2013-03-13 05:35:00,
2013-03-13 01:40:00,44.6,40.4,29.74,NW,305,4.2,13.0,85,0.00,,,0.00,WUHU216DAVISVP2,2013-03-13 05:40:00,
2013-03-13 01:45:00,44.5,40.3,29.74,NW,306,3.0,13.0,85,0.00,,,0.00,WUHU216DAVISVP2,2013-03-13 05:45:00,
2013-03-13 01:50:00,44.3,40.1,29.74,WNW,290,4.5,13.0,85,0.00,,,0.00,WUHU216DAVISVP2,2013-03-13 05:50:00,
2013-03-13 01:55:00,44.0,39.8,29.74,WNW,299,7.0,12.0,85,0.00,,,0.00,WUHU216DAVISVP2,2013-03-13 05:55:00,
2013-03-13 02:00:00,43.9,39.7,29.75,WNW,297,4.6,10.0,85,0.00,,,0.00,WUHU216DAVISVP2,2013-03-13 06:00:00,
2013-03-13 02:05:00,43.6,39.7,29.74,WNW,291,6.0,10.0,86,0.00,,,0.00,WUHU216DAVISVP2,2013-03-13 06:05:00,
2013-03-13 02:10:00,43.2,39.3,29.74,NW,305,1.8,10.0,86,0.00,,,0.00,WUHU216DAVISVP2,2013-03-13 06:10:00,
2013-03-13 02:15:00,42.8,39.2,29.74,West,280,4.6,9.0,87,0.00,,,0.00,WUHU216DAVISVP2,2013-03-13 06:15:00,
2013-03-13 02:20:00,42.7,39.1,29.74,West,270,2.9,9.0,87,0.00,,,0.00,WUHU216DAVISVP2,2013-03-13 06:20:00,
2013-03-13 02:25:00,42.3,38.7,29.75,WNW,296,2.8,8.0,87,0.00,,,0.00,WUHU216DAVISVP2,2013-03-13 06:25:00,
2013-03-13 02:30:00,42.2,38.9,29.75,WNW,296,1.8,8.0,88,0.00,,,0.00,WUHU216DAVISVP2,2013-03-13 06:30:00,
2013-03-13 02:35:00,42.0,38.7,29.75,WNW,300,4.0,8.0,88,0.00,,,0.00,WUHU216DAVISVP2,2013-03-13 06:35:00,
2013-03-13 02:40:00,41.9,38.6,29.74,WNW,302,4.0,8.0,88,0.00,,,0.00,WUHU216DAVISVP2,2013-03-13 06:40:00,
2013-03-13 02:45:00,41.7,38.1,29.74,NW,309,3.4,7.0,87,0.00,,,0.00,WUHU216DAVISVP2,2013-03-13 06:45:00,
2013-03-13 02:50:00,41.5,37.9,29.74,WNW,302,4.2,9.0,87,0.00,,,0.00,WUHU216DAVISVP2,2013-03-13 06:50:00,
2013-03-13 02:55:00,41.3,38.0,29.75,NW,309,5.0,9.0,88,0.00,,,0.00,WUHU216DAVISVP2,2013-03-13 06:55:00,
2013-03-13 03:00:00,41.3,37.7,29.75,WNW,303,4.8,9.0,87,0.00,,,0.00,WUHU216DAVISVP2,2013-03-13 07:00:00,
2013-03-13 03:05:00,41.3,37.4,29.75,NW,313,7.0,9.0,86,0.00,,,0.00,WUHU216DAVISVP2,2013-03-13 07:05:00,
2013-03-13 03:10:00,41.1,37.2,29.75,NW,313,1.8,9.0,86,0.00,,,0.00,WUHU216DAVISVP2,2013-03-13 07:10:00,
2013-03-13 03:15:00,40.9,37.0,29.76,NW,313,5.0,9.0,86,0.00,,,0.00,WUHU216DAVISVP2,2013-03-13 07:15:00,
2013-03-13 03:20:00,41.0,37.1,29.76,NW,310,2.6,7.0,86,0.00,,,0.00,WUHU216DAVISVP2,2013-03-13 07:20:00,
2013-03-13 03:25:00,40.9,36.7,29.76,NW,309,2.7,7.0,85,0.00,,,0.00,WUHU216DAVISVP2,2013-03-13 07:25:00,
2013-03-13 03:30:00,40.7,36.8,29.76,NW,309,3.0,7.0,86,0.00,,,0.00,WUHU216DAVISVP2,2013-03-13 07:30:00,
2013-03-13 03:35:00,40.6,36.7,29.75,NW,308,4.0,7.0,86,0.00,,,0.00,WUHU216DAVISVP2,2013-03-13 07:35:00,
2013-03-13 03:40:00,40.4,36.5,29.75,WNW,300,9.0,11.0,86,0.00,,,0.00,WUHU216DAVISVP2,2013-03-13 07:40:00,
2013-03-13 03:45:00,40.4,36.2,29.75,NW,307,3.0,11.0,85,0.00,,,0.00,WUHU216DAVISVP2,2013-03-13 07:45:00,
2013-03-13 03:50:00,40.2,35.8,29.75,NW,311,2.8,11.0,84,0.00,,,0.00,WUHU216DAVISVP2,2013-03-13 07:50:00,
2013-03-13 03:55:00,39.9,35.8,29.75,NW,311,3.0,11.0,85,0.00,,,0.00,WUHU216DAVISVP2,2013-03-13 07:55:00,
2013-03-13 04:00:00,39.9,35.5,29.75,NW,304,6.0,12.0,84,0.00,,,0.00,WUHU216DAVISVP2,2013-03-13 08:00:00,
2013-03-13 04:06:00,39.9,35.4,29.75,NW,306,5.0,12.0,84,0.00,,,0.00,WUHU216DAVISVP2,2013-03-13 08:06:00,
2013-03-13 04:11:00,39.7,35.2,29.75,NW,312,4.0,12.0,84,0.00,,,0.00,WUHU216DAVISVP2,2013-03-13 08:11:00,
2013-03-13 04:16:00,39.4,35.0,29.75,NW,311,4.4,12.0,84,0.00,,,0.00,WUHU216DAVISVP2,2013-03-13 08:16:00,
2013-03-13 04:21:00,39.2,35.1,29.75,WNW,300,1.1,10.0,85,0.00,,,0.00,WUHU216DAVISVP2,2013-03-13 08:21:00,
2013-03-13 04:26:00,39.0,34.9,29.75,WNW,300,5.0,9.0,85,0.00,,,0.00,WUHU216DAVISVP2,2013-03-13 08:26:00,
2013-03-13 04:30:00,38.9,35.1,29.75,NW,315,3.0,10.0,86,0.00,,,0.00,WUHU216DAVISVP2,2013-03-13 08:30:00,
2013-03-13 04:32:00,38.8,34.9,29.75,NNW,327,4.0,9.0,86,0.00,,,0.00,WUHU216DAVISVP2,2013-03-13 08:32:00,
2013-03-13 04:37:00,38.8,34.7,29.75,WNW,297,4.0,9.0,85,0.00,,,0.00,WUHU216DAVISVP2,2013-03-13 08:37:00,
2013-03-13 04:42:00,38.8,34.7,29.75,NW,305,3.6,9.0,85,0.00,,,0.00,WUHU216DAVISVP2,2013-03-13 08:42:00,
2013-03-13 04:47:00,38.8,34.4,29.76,NW,318,3.3,9.0,84,0.00,,,0.00,WUHU216DAVISVP2,2013-03-13 08:47:00,
2013-03-13 04:52:00,38.8,34.4,29.75,NW,323,3.0,9.0,84,0.00,,,0.00,WUHU216DAVISVP2,2013-03-13 08:52:00,
2013-03-13 04:57:00,38.6,34.2,29.75,NW,313,3.7,9.0,84,0.00,,,0.00,WUHU216DAVISVP2,2013-03-13 08:57:00,
2013-03-13 05:00:00,38.6,34.2,29.75,NW,315,3.0,9.0,84,0.00,,,0.00,WUHU216DAVISVP2,2013-03-13 09:00:00,
2013-03-13 05:02:00,38.5,34.1,29.75,WNW,300,2.3,8.0,84,0.00,,,0.00,WUHU216DAVISVP2,2013-03-13 09:02:00,
2013-03-13 05:07:00,38.4,34.0,29.76,WNW,299,2.0,8.0,84,0.00,,,0.00,WUHU216DAVISVP2,2013-03-13 09:07:00,
2013-03-13 05:12:00,38.2,33.8,29.76,WNW,300,2.1,7.0,84,0.00,,,0.00,WUHU216DAVISVP2,2013-03-13 09:12:00,
2013-03-13 05:17:00,38.0,33.9,29.76,WNW,302,2.3,7.0,85,0.00,,,0.00,WUHU216DAVISVP2,2013-03-13 09:17:00,
2013-03-13 05:22:00,38.0,33.6,29.76,WNW,296,4.0,8.0,84,0.00,,,0.00,WUHU216DAVISVP2,2013-03-13 09:22:00,
2013-03-13 05:27:00,37.9,33.5,29.76,WNW,296,2.4,8.0,84,0.00,,,0.00,WUHU216DAVISVP2,2013-03-13 09:27:00,
2013-03-13 05:30:00,37.9,33.5,29.77,WNW,293,2.0,8.0,84,0.00,,,0.00,WUHU216DAVISVP2,2013-03-13 09:30:00,
2013-03-13 05:32:00,37.8,33.4,29.77,WNW,298,2.1,8.0,84,0.00,,,0.00,WUHU216DAVISVP2,2013-03-13 09:32:00,
2013-03-13 05:37:00,37.7,33.3,29.77,WNW,302,2.6,6.0,84,0.00,,,0.00,WUHU216DAVISVP2,2013-03-13 09:37:00,
2013-03-13 05:42:00,37.7,33.3,29.76,WNW,302,2.0,5.0,84,0.00,,,0.00,WUHU216DAVISVP2,2013-03-13 09:42:00,
2013-03-13 05:47:00,37.5,33.1,29.77,WNW,302,1.8,5.0,84,0.00,,,0.00,WUHU216DAVISVP2,2013-03-13 09:47:00,
2013-03-13 05:52:00,37.5,32.8,29.76,WNW,301,4.0,7.0,83,0.00,,,0.00,WUHU216DAVISVP2,2013-03-13 09:52:00,
2013-03-13 05:57:00,37.6,32.9,29.76,WNW,302,1.4,7.0,83,0.00,,,0.00,WUHU216DAVISVP2,2013-03-13 09:57:00,
2013-03-13 06:00:00,37.6,32.9,29.76,WNW,293,1.0,7.0,83,0.00,,,0.00,WUHU216DAVISVP2,2013-03-13 10:00:00,
2013-03-13 06:02:00,37.5,32.8,29.76,NW,309,1.4,7.0,83,0.00,,,0.00,WUHU216DAVISVP2,2013-03-13 10:02:00,
2013-03-13 06:07:00,37.4,32.7,29.76,NW,307,0.0,7.0,83,0.00,,,0.00,WUHU216DAVISVP2,2013-03-13 10:07:00,
2013-03-13 06:12:00,37.1,32.4,29.76,NW,312,2.5,6.0,83,0.00,,,0.00,WUHU216DAVISVP2,2013-03-13 10:12:00,
2013-03-13 06:17:00,37.0,32.6,29.76,NW,310,2.0,5.0,84,0.00,,,0.00,WUHU216DAVISVP2,2013-03-13 10:17:00,
2013-03-13 06:22:00,36.8,32.4,29.76,NW,311,0.0,5.0,84,0.00,,,0.00,WUHU216DAVISVP2,2013-03-13 10:22:00,
2013-03-13 06:27:00,36.3,32.2,29.76,NW,311,0.0,5.0,85,0.00,,,0.00,WUHU216DAVISVP2,2013-03-13 10:27:00,
2013-03-13 06:30:00,36.1,32.3,29.76,NW,315,0.0,5.0,86,0.00,,,0.00,WUHU216DAVISVP2,2013-03-13 10:30:00,
2013-03-13 06:32:00,35.9,32.1,29.76,NW,311,0.0,5.0,86,0.00,,,0.00,WUHU216DAVISVP2,2013-03-13 10:32:00,
2013-03-13 06:37:00,35.6,32.1,29.76,NW,311,1.0,2.0,87,0.00,,,0.00,WUHU216DAVISVP2,2013-03-13 10:37:00,
2013-03-13 06:42:00,35.6,31.8,29.75,NW,311,1.7,5.0,86,0.00,,,0.00,WUHU216DAVISVP2,2013-03-13 10:42:00,
2013-03-13 06:47:00,36.0,31.9,29.75,NW,310,2.0,5.0,85,0.00,,,0.00,WUHU216DAVISVP2,2013-03-13 10:47:00,
2013-03-13 06:52:00,36.4,32.3,29.75,NW,313,2.1,6.0,85,0.00,,,0.00,WUHU216DAVISVP2,2013-03-13 10:52:00,
2013-03-13 06:57:00,36.6,32.2,29.76,NW,313,2.3,6.0,84,0.00,,,0.00,WUHU216DAVISVP2,2013-03-13 10:57:00,
2013-03-13 07:00:00,36.5,32.1,29.75,NW,315,1.0,6.0,84,0.00,,,0.00,WUHU216DAVISVP2,2013-03-13 11:00:00,
2013-03-13 07:02:00,36.4,32.0,29.75,NW,312,0.0,6.0,84,0.00,,,0.00,WUHU216DAVISVP2,2013-03-13 11:02:00,
2013-03-13 07:07:00,36.6,31.9,29.75,WNW,302,4.5,7.0,83,0.00,,,0.00,WUHU216DAVISVP2,2013-03-13 11:07:00,
2013-03-13 07:12:00,36.9,31.9,29.75,NW,306,4.7,8.0,82,0.00,,,0.00,WUHU216DAVISVP2,2013-03-13 11:12:00,
2013-03-13 07:17:00,37.1,32.1,29.75,NW,319,4.2,8.0,82,0.00,,,0.00,WUHU216DAVISVP2,2013-03-13 11:17:00,
2013-03-13 07:22:00,37.1,32.1,29.75,NW,314,3.0,8.0,82,0.00,,,0.00,WUHU216DAVISVP2,2013-03-13 11:22:00,
2013-03-13 07:27:00,37.1,31.8,29.76,NW,312,2.3,8.0,81,0.00,,,0.00,WUHU216DAVISVP2,2013-03-13 11:27:00,
2013-03-13 07:30:00,37.1,32.1,29.75,NW,315,2.0,8.0,82,0.00,,,0.00,WUHU216DAVISVP2,2013-03-13 11:30:00,
2013-03-13 07:32:00,37.0,32.0,29.75,NW,312,2.0,7.0,82,0.00,,,0.00,WUHU216DAVISVP2,2013-03-13 11:32:00,
2013-03-13 07:37:00,37.1,32.1,29.75,NW,312,2.3,7.0,82,0.00,,,0.00,WUHU216DAVISVP2,2013-03-13 11:37:00,
2013-03-13 07:42:00,37.3,32.3,29.75,NW,311,2.7,6.0,82,0.00,,,0.00,WUHU216DAVISVP2,2013-03-13 11:42:00,
2013-03-13 07:47:00,37.5,32.2,29.75,NW,311,3.6,6.0,81,0.00,,,0.00,WUHU216DAVISVP2,2013-03-13 11:47:00,
2013-03-13 07:52:00,37.7,32.4,29.75,NW,304,5.0,9.0,81,0.00,,,0.00,WUHU216DAVISVP2,2013-03-13 11:52:00,
2013-03-13 07:57:00,37.8,32.5,29.75,WNW,299,3.0,9.0,81,0.00,,,0.00,WUHU216DAVISVP2,2013-03-13 11:57:00,
2013-03-13 08:00:00,37.8,32.5,29.75,NW,315,2.0,9.0,81,0.00,,,0.00,WUHU216DAVISVP2,2013-03-13 12:00:00,
2013-03-13 08:02:00,37.9,32.6,29.75,WNW,300,3.0,9.0,81,0.00,,,0.00,WUHU216DAVISVP2,2013-03-13 12:02:00,
2013-03-13 08:07:00,38.0,32.7,29.75,NW,307,3.3,9.0,81,0.00,,,0.00,WUHU216DAVISVP2,2013-03-13 12:07:00,
2013-03-13 08:12:00,38.2,32.9,29.75,WNW,300,5.0,7.0,81,0.00,,,0.00,WUHU216DAVISVP2,2013-03-13 12:12:00,
2013-03-13 08:17:00,38.4,32.8,29.75,WNW,301,3.7,8.0,80,0.00,,,0.00,WUHU216DAVISVP2,2013-03-13 12:17:00,
2013-03-13 08:22:00,38.6,33.0,29.75,NW,316,4.7,8.0,80,0.00,,,0.00,WUHU216DAVISVP2,2013-03-13 12:22:00,
2013-03-13 08:27:00,38.8,33.2,29.75,NW,311,2.0,8.0,80,0.00,,,0.00,WUHU216DAVISVP2,2013-03-13 12:27:00,
2013-03-13 08:30:00,39.0,33.4,29.75,WNW,293,2.0,8.0,80,0.00,,,0.00,WUHU216DAVISVP2,2013-03-13 12:30:00,
2013-03-13 08:32:00,39.2,33.2,29.75,WNW,291,7.0,8.0,79,0.00,,,0.00,WUHU216DAVISVP2,2013-03-13 12:32:00,
2013-03-13 08:37:00,39.4,33.5,29.75,NW,316,3.9,9.0,79,0.00,,,0.00,WUHU216DAVISVP2,2013-03-13 12:37:00,
2013-03-13 08:42:00,39.7,33.7,29.75,NW,325,2.0,9.0,79,0.00,,,0.00,WUHU216DAVISVP2,2013-03-13 12:42:00,
2013-03-13 08:47:00,40.0,34.0,29.75,NW,316,2.5,9.0,79,0.00,,,0.00,WUHU216DAVISVP2,2013-03-13 12:47:00,
2013-03-13 08:52:00,40.2,33.9,29.75,NW,310,2.5,9.0,78,0.00,,,0.00,WUHU216DAVISVP2,2013-03-13 12:52:00,
2013-03-13 08:57:00,40.5,34.2,29.75,NNW,336,4.0,9.0,78,0.00,,,0.00,WUHU216DAVISVP2,2013-03-13 12:57:00,
2013-03-13 09:00:00,40.6,34.0,29.74,NW,315,3.0,9.0,77,0.00,,,0.00,WUHU216DAVISVP2,2013-03-13 13:00:00,
2013-03-13 09:02:00,40.8,34.5,29.74,WNW,296,9.0,13.0,78,0.00,,,0.00,WUHU216DAVISVP2,2013-03-13 13:02:00,
2013-03-13 09:07:00,41.0,34.4,29.74,NNW,342,5.0,13.0,77,0.00,,,0.00,WUHU216DAVISVP2,2013-03-13 13:07:00,
2013-03-13 09:12:00,41.2,34.6,29.75,NW,312,3.0,13.0,77,0.00,,,0.00,WUHU216DAVISVP2,2013-03-13 13:12:00,
2013-03-13 09:17:00,41.5,34.8,29.74,NW,312,3.0,13.0,77,0.00,,,0.00,WUHU216DAVISVP2,2013-03-13 13:17:00,
2013-03-13 09:22:00,41.8,34.8,29.74,NW,317,5.3,12.0,76,0.00,,,0.00,WUHU216DAVISVP2,2013-03-13 13:22:00,
2013-03-13 09:27:00,41.9,34.9,29.75,NW,313,6.9,14.0,76,0.00,,,0.00,WUHU216DAVISVP2,2013-03-13 13:27:00,
2013-03-13 09:30:00,42.1,35.1,29.74,NW,315,4.0,14.0,76,0.00,,,0.00,WUHU216DAVISVP2,2013-03-13 13:30:00,
2013-03-13 09:32:00,42.2,34.9,29.74,West,279,15.0,15.0,75,0.00,,,0.00,WUHU216DAVISVP2,2013-03-13 13:32:00,
2013-03-13 09:37:00,42.3,34.7,29.74,North,10,9.0,17.0,74,0.00,,,0.00,WUHU216DAVISVP2,2013-03-13 13:37:00,
2013-03-13 09:42:00,42.4,34.8,29.74,NW,315,4.8,17.0,74,0.00,,,0.00,WUHU216DAVISVP2,2013-03-13 13:42:00,
2013-03-13 09:47:00,42.6,35.3,29.74,NW,308,6.0,17.0,75,0.00,,,0.00,WUHU216DAVISVP2,2013-03-13 13:47:00,
2013-03-13 09:52:00,42.8,35.2,29.74,NNW,341,5.0,17.0,74,0.00,,,0.00,WUHU216DAVISVP2,2013-03-13 13:52:00,
2013-03-13 09:57:00,42.9,35.2,29.74,NNW,336,2.0,14.0,74,0.00,,,0.00,WUHU216DAVISVP2,2013-03-13 13:57:00,
2013-03-13 10:00:00,43.0,34.9,29.74,NW,315,5.0,17.0,73,0.00,,,0.00,WUHU216DAVISVP2,2013-03-13 14:00:00,
2013-03-13 10:02:00,43.1,35.4,29.74,NW,304,4.7,10.0,74,0.00,,,0.00,WUHU216DAVISVP2,2013-03-13 14:02:00,
2013-03-13 10:07:00,43.2,35.2,29.74,NW,318,8.0,10.0,73,0.00,,,0.00,WUHU216DAVISVP2,2013-03-13 14:07:00,
2013-03-13 10:12:00,43.2,34.9,29.74,WNW,296,8.6,12.0,72,0.00,,,0.00,WUHU216DAVISVP2,2013-03-13 14:12:00,
2013-03-13 10:17:00,43.7,35.7,29.74,NW,311,3.7,12.0,73,0.00,,,0.00,WUHU216DAVISVP2,2013-03-13 14:17:00,
2013-03-13 10:22:00,44.0,35.3,29.74,WNW,302,6.0,12.0,71,0.00,,,0.00,WUHU216DAVISVP2,2013-03-13 14:22:00,
2013-03-13 10:27:00,44.3,35.9,29.74,NNW,327,9.0,12.0,72,0.00,,,0.00,WUHU216DAVISVP2,2013-03-13 14:27:00,
2013-03-13 10:30:00,44.5,36.0,29.74,NW,315,5.0,12.0,72,0.00,,,0.00,WUHU216DAVISVP2,2013-03-13 14:30:00,
2013-03-13 10:32:00,44.6,35.5,29.74,NW,317,5.4,12.0,70,0.00,,,0.00,WUHU216DAVISVP2,2013-03-13 14:32:00,
2013-03-13 10:37:00,44.9,35.8,29.74,WNW,288,4.7,12.0,70,0.00,,,0.00,WUHU216DAVISVP2,2013-03-13 14:37:00,
2013-03-13 10:42:00,45.1,35.5,29.74,WNW,283,7.1,12.0,69,0.00,,,0.00,WUHU216DAVISVP2,2013-03-13 14:42:00,
2013-03-13 10:47:00,45.0,35.1,29.73,NW,315,6.1,13.0,68,0.00,,,0.00,WUHU216DAVISVP2,2013-03-13 14:47:00,
2013-03-13 10:52:00,45.0,34.7,29.73,NW,311,4.9,13.0,67,0.00,,,0.00,WUHU216DAVISVP2,2013-03-13 14:52:00,
2013-03-13 10:57:00,45.2,36.1,29.73,NW,316,3.8,13.0,70,0.00,,,0.00,WUHU216DAVISVP2,2013-03-13 14:57:00,
2013-03-13 11:00:00,45.4,36.2,29.73,NW,315,5.0,13.0,70,0.00,,,0.00,WUHU216DAVISVP2,2013-03-13 15:00:00,
2013-03-13 11:02:00,45.6,35.7,29.73,WNW,289,5.0,13.0,68,0.00,,,0.00,WUHU216DAVISVP2,2013-03-13 15:02:00,
2013-03-13 11:08:00,45.9,36.0,29.73,WNW,293,7.4,11.0,68,0.00,,,0.00,WUHU216DAVISVP2,2013-03-13 15:08:00,
2013-03-13 11:13:00,46.0,36.1,29.73,NW,306,9.0,17.0,68,0.00,,,0.00,WUHU216DAVISVP2,2013-03-13 15:13:00,
2013-03-13 11:18:00,45.7,35.8,29.73,West,273,9.0,17.0,68,0.00,,,0.00,WUHU216DAVISVP2,2013-03-13 15:18:00,
2013-03-13 11:23:00,45.9,35.7,29.73,NW,307,6.4,17.0,67,0.00,,,0.00,WUHU216DAVISVP2,2013-03-13 15:23:00,
2013-03-13 11:28:00,46.5,36.2,29.73,West,265,11.0,17.0,67,0.00,,,0.00,WUHU216DAVISVP2,2013-03-13 15:28:00,
2013-03-13 11:30:00,46.4,35.7,29.72,WNW,293,6.0,17.0,66,0.00,,,0.00,WUHU216DAVISVP2,2013-03-13 15:30:00,
2013-03-13 11:33:00,46.0,35.4,29.72,West,281,13.0,14.0,66,0.00,,,0.00,WUHU216DAVISVP2,2013-03-13 15:33:00,
2013-03-13 11:38:00,45.6,34.6,29.73,WNW,287,8.4,15.0,65,0.00,,,0.00,WUHU216DAVISVP2,2013-03-13 15:38:00,
2013-03-13 11:43:00,45.7,35.0,29.73,WNW,284,7.6,15.0,66,0.00,,,0.00,WUHU216DAVISVP2,2013-03-13 15:43:00,
2013-03-13 11:48:00,45.6,34.9,29.73,West,276,6.6,17.0,66,0.00,,,0.00,WUHU216DAVISVP2,2013-03-13 15:48:00,
2013-03-13 11:53:00,46.2,35.5,29.72,WNW,284,6.3,17.0,66,0.00,,,0.00,WUHU216DAVISVP2,2013-03-13 15:53:00,
2013-03-13 11:58:00,46.6,35.1,29.73,WNW,303,7.3,17.0,64,0.00,,,0.00,WUHU216DAVISVP2,2013-03-13 15:58:00,
2013-03-13 12:00:00,46.5,35.4,29.73,WNW,293,7.0,17.0,65,0.00,,,0.00,WUHU216DAVISVP2,2013-03-13 16:00:00,
2013-03-13 12:03:00,46.8,36.4,29.73,WNW,295,4.4,12.0,67,0.00,,,0.00,WUHU216DAVISVP2,2013-03-13 16:03:00,
2013-03-13 12:08:00,47.2,34.8,29.73,NW,319,4.6,12.0,62,0.00,,,0.00,WUHU216DAVISVP2,2013-03-13 16:08:00,
2013-03-13 12:13:00,46.6,33.9,29.73,NW,316,5.1,12.0,61,0.00,,,0.00,WUHU216DAVISVP2,2013-03-13 16:13:00,
2013-03-13 12:18:00,46.4,34.2,29.73,NW,308,6.8,13.0,62,0.00,,,0.00,WUHU216DAVISVP2,2013-03-13 16:18:00,
2013-03-13 12:23:00,46.6,34.4,29.73,WNW,285,6.9,18.0,62,0.00,,,0.00,WUHU216DAVISVP2,2013-03-13 16:23:00,
2013-03-13 12:28:00,47.1,34.0,29.73,NW,306,8.7,18.0,60,0.00,,,0.00,WUHU216DAVISVP2,2013-03-13 16:28:00,
2013-03-13 12:30:00,47.3,34.1,29.73,NW,315,6.0,18.0,60,0.00,,,0.00,WUHU216DAVISVP2,2013-03-13 16:30:00,
2013-03-13 12:33:00,47.4,35.1,29.73,West,273,5.8,18.0,62,0.00,,,0.00,WUHU216DAVISVP2,2013-03-13 16:33:00,
2013-03-13 12:38:00,47.8,34.7,29.72,NW,326,3.8,18.0,60,0.00,,,0.00,WUHU216DAVISVP2,2013-03-13 16:38:00,
2013-03-13 12:43:00,48.1,34.1,29.73,NW,317,6.6,14.0,58,0.00,,,0.00,WUHU216DAVISVP2,2013-03-13 16:43:00,
2013-03-13 12:48:00,48.3,34.3,29.73,WSW,258,13.0,14.0,58,0.00,,,0.00,WUHU216DAVISVP2,2013-03-13 16:48:00,
2013-03-13 12:53:00,47.6,32.7,29.72,West,271,11.8,19.0,56,0.00,,,0.00,WUHU216DAVISVP2,2013-03-13 16:53:00,
2013-03-13 12:58:00,47.2,32.8,29.72,WSW,254,12.0,19.0,57,0.00,,,0.00,WUHU216DAVISVP2,2013-03-13 16:58:00,
2013-03-13 13:00:00,47.2,32.7,29.73,West,270,8.0,19.0,57,0.00,,,0.00,WUHU216DAVISVP2,2013-03-13 17:00:00,
2013-03-13 13:03:00,47.3,33.3,29.72,West,278,8.4,19.0,58,0.00,,,0.00,WUHU216DAVISVP2,2013-03-13 17:03:00,
2013-03-13 13:08:00,47.8,33.4,29.72,WNW,292,8.1,19.0,57,0.00,,,0.00,WUHU216DAVISVP2,2013-03-13 17:08:00,
2013-03-13 13:13:00,47.8,33.4,29.72,NW,311,7.0,17.0,57,0.00,,,0.00,WUHU216DAVISVP2,2013-03-13 17:13:00,
2013-03-13 13:18:00,47.9,33.0,29.72,WNW,291,9.9,17.0,56,0.00,,,0.00,WUHU216DAVISVP2,2013-03-13 17:18:00,
2013-03-13 13:23:00,47.8,33.4,29.72,NW,315,9.0,17.0,57,0.00,,,0.00,WUHU216DAVISVP2,2013-03-13 17:23:00,
2013-03-13 13:28:00,48.0,33.1,29.72,WNW,303,8.7,17.0,56,0.00,,,0.00,WUHU216DAVISVP2,2013-03-13 17:28:00,
2013-03-13 13:30:00,48.0,33.9,29.72,WNW,293,8.0,17.0,58,0.00,,,0.00,WUHU216DAVISVP2,2013-03-13 17:30:00,
2013-03-13 13:33:00,47.7,32.4,29.72,WNW,301,8.1,17.0,55,0.00,,,0.00,WUHU216DAVISVP2,2013-03-13 17:33:00,
2013-03-13 13:38:00,47.8,32.0,29.72,West,272,8.6,15.0,54,0.00,,,0.00,WUHU216DAVISVP2,2013-03-13 17:38:00,
2013-03-13 13:43:00,48.3,33.3,29.72,WNW,285,7.0,15.0,56,0.00,,,0.00,WUHU216DAVISVP2,2013-03-13 17:43:00,
2013-03-13 13:48:00,48.2,30.9,29.72,NW,321,8.0,15.0,51,0.00,,,0.00,WUHU216DAVISVP2,2013-03-13 17:48:00,
2013-03-13 13:53:00,48.2,30.9,29.72,WNW,292,9.4,15.0,51,0.00,,,0.00,WUHU216DAVISVP2,2013-03-13 17:53:00,
2013-03-13 13:58:00,47.8,31.0,29.72,WNW,296,9.0,14.0,52,0.00,,,0.00,WUHU216DAVISVP2,2013-03-13 17:58:00,
2013-03-13 14:00:00,47.7,30.4,29.71,WNW,293,8.0,15.0,51,0.00,,,0.00,WUHU216DAVISVP2,2013-03-13 18:00:00,
2013-03-13 14:03:00,48.0,33.0,29.71,West,273,8.6,14.0,56,0.00,,,0.00,WUHU216DAVISVP2,2013-03-13 18:03:00,
2013-03-13 14:08:00,48.7,32.8,29.71,WNW,289,9.5,14.0,54,0.00,,,0.00,WUHU216DAVISVP2,2013-03-13 18:08:00,
2013-03-13 14:13:00,48.3,31.5,29.71,WNW,285,14.0,16.0,52,0.00,,,0.00,WUHU216DAVISVP2,2013-03-13 18:13:00,
2013-03-13 14:18:00,47.8,31.5,29.72,WNW,292,9.7,18.0,53,0.00,,,0.00,WUHU216DAVISVP2,2013-03-13 18:18:00,
2013-03-13 14:23:00,47.7,32.4,29.71,West,272,10.0,18.0,55,0.00,,,0.00,WUHU216DAVISVP2,2013-03-13 18:23:00,
2013-03-13 14:28:00,48.0,30.7,29.71,West,275,14.0,18.0,51,0.00,,,0.00,WUHU216DAVISVP2,2013-03-13 18:28:00,
2013-03-13 14:30:00,47.7,30.4,29.71,WNW,293,9.0,18.0,51,0.00,,,0.00,WUHU216DAVISVP2,2013-03-13 18:30:00,
2013-03-13 14:33:00,47.6,30.8,29.71,WNW,292,8.1,18.0,52,0.00,,,0.00,WUHU216DAVISVP2,2013-03-13 18:33:00,
2013-03-13 14:38:00,47.3,30.1,29.71,WNW,285,10.0,16.0,51,0.00,,,0.00,WUHU216DAVISVP2,2013-03-13 18:38:00,
2013-03-13 14:43:00,47.4,31.1,29.70,NW,304,5.8,16.0,53,0.00,,,0.00,WUHU216DAVISVP2,2013-03-13 18:43:00,
2013-03-13 14:48:00,47.8,30.5,29.71,WNW,297,9.0,16.0,51,0.00,,,0.00,WUHU216DAVISVP2,2013-03-13 18:48:00,
2013-03-13 14:53:00,47.4,30.2,29.70,West,261,7.7,17.0,51,0.00,,,0.00,WUHU216DAVISVP2,2013-03-13 18:53:00,
2013-03-13 14:58:00,47.3,30.1,29.70,West,279,9.0,17.0,51,0.00,,,0.00,WUHU216DAVISVP2,2013-03-13 18:58:00,
2013-03-13 15:00:00,47.2,30.0,29.70,WNW,293,8.0,17.0,51,0.00,,,0.00,WUHU216DAVISVP2,2013-03-13 19:00:00,
2013-03-13 15:03:00,47.3,30.6,29.70,West,279,6.0,17.0,52,0.00,,,0.00,WUHU216DAVISVP2,2013-03-13 19:03:00,
2013-03-13 15:08:00,47.7,30.4,29.70,WNW,291,9.0,13.0,51,0.00,,,0.00,WUHU216DAVISVP2,2013-03-13 19:08:00,
2013-03-13 15:13:00,47.8,29.5,29.70,NW,313,6.0,13.0,49,0.00,,,0.00,WUHU216DAVISVP2,2013-03-13 19:13:00,
2013-03-13 15:18:00,48.2,30.9,29.70,WNW,299,7.0,14.0,51,0.00,,,0.00,WUHU216DAVISVP2,2013-03-13 19:18:00,
2013-03-13 15:23:00,48.2,29.4,29.70,NW,308,10.0,14.0,48,0.00,,,0.00,WUHU216DAVISVP2,2013-03-13 19:23:00,
2013-03-13 15:28:00,48.1,29.8,29.70,NW,308,6.3,16.0,49,0.00,,,0.00,WUHU216DAVISVP2,2013-03-13 19:28:00,
2013-03-13 15:30:00,48.1,28.8,29.69,WNW,293,7.0,16.0,47,0.00,,,0.00,WUHU216DAVISVP2,2013-03-13 19:30:00,
2013-03-13 15:33:00,48.1,28.7,29.69,West,271,7.0,16.0,47,0.00,,,0.00,WUHU216DAVISVP2,2013-03-13 19:33:00,
2013-03-13 15:38:00,48.3,28.9,29.70,NW,315,6.0,16.0,47,0.00,,,0.00,WUHU216DAVISVP2,2013-03-13 19:38:00,
2013-03-13 15:43:00,48.1,28.7,29.69,WNW,283,10.0,12.0,47,0.00,,,0.00,WUHU216DAVISVP2,2013-03-13 19:43:00,
2013-03-13 15:48:00,48.3,30.0,29.69,WNW,284,8.0,12.0,49,0.00,,,0.00,WUHU216DAVISVP2,2013-03-13 19:48:00,
2013-03-13 15:53:00,48.7,29.3,29.69,West,261,9.0,13.0,47,0.00,,,0.00,WUHU216DAVISVP2,2013-03-13 19:53:00,
2013-03-13 15:58:00,48.5,27.4,29.69,WNW,298,4.0,15.0,44,0.00,,,0.00,WUHU216DAVISVP2,2013-03-13 19:58:00,
2013-03-13 16:00:00,48.5,28.1,29.69,WNW,293,6.0,15.0,45,0.00,,,0.00,WUHU216DAVISVP2,2013-03-13 20:00:00,
2013-03-13 16:03:00,48.7,28.7,29.69,NW,307,3.2,15.0,46,0.00,,,0.00,WUHU216DAVISVP2,2013-03-13 20:03:00,
2013-03-13 16:08:00,49.1,27.4,29.69,NW,310,8.2,15.0,43,0.00,,,0.00,WUHU216DAVISVP2,2013-03-13 20:08:00,
2013-03-13 16:13:00,48.8,28.3,29.69,WNW,284,7.0,14.0,45,0.00,,,0.00,WUHU216DAVISVP2,2013-03-13 20:13:00,
2013-03-13 16:18:00,48.7,28.2,29.68,NNW,329,4.0,14.0,45,0.00,,,0.00,WUHU216DAVISVP2,2013-03-13 20:18:00,
2013-03-13 16:23:00,49.0,27.9,29.69,WNW,295,7.0,15.0,44,0.00,,,0.00,WUHU216DAVISVP2,2013-03-13 20:23:00,
2013-03-13 16:28:00,48.8,27.1,29.69,North,9,9.0,15.0,43,0.00,,,0.00,WUHU216DAVISVP2,2013-03-13 20:28:00,
2013-03-13 16:30:00,48.9,27.4,29.69,WNW,293,7.0,15.0,43,0.00,,,0.00,WUHU216DAVISVP2,2013-03-13 20:30:00,
2013-03-13 16:33:00,48.8,26.0,29.69,NW,313,5.1,15.0,41,0.00,,,0.00,WUHU216DAVISVP2,2013-03-13 20:33:00,
2013-03-13 16:38:00,48.9,25.0,29.69,West,278,10.4,15.0,39,0.00,,,0.00,WUHU216DAVISVP2,2013-03-13 20:38:00,
2013-03-13 16:43:00,48.9,25.0,29.69,NW,313,12.0,15.0,39,0.00,,,0.00,WUHU216DAVISVP2,2013-03-13 20:43:00,
2013-03-13 16:48:00,48.6,25.3,29.69,West,275,10.4,18.0,40,0.00,,,0.00,WUHU216DAVISVP2,2013-03-13 20:48:00,
2013-03-13 16:53:00,48.3,24.3,29.70,West,272,11.0,19.0,39,0.00,,,0.00,WUHU216DAVISVP2,2013-03-13 20:53:00,
2013-03-13 16:58:00,48.2,26.0,29.69,WNW,294,5.0,19.0,42,0.00,,,0.00,WUHU216DAVISVP2,2013-03-13 20:58:00,
2013-03-13 17:00:00,48.3,26.2,29.69,NW,315,7.0,19.0,42,0.00,,,0.00,WUHU216DAVISVP2,2013-03-13 21:00:00,
2013-03-13 17:03:00,48.5,25.7,29.69,West,273,5.0,19.0,41,0.00,,,0.00,WUHU216DAVISVP2,2013-03-13 21:03:00,
2013-03-13 17:08:00,48.7,25.9,29.69,WNW,303,8.0,15.0,41,0.00,,,0.00,WUHU216DAVISVP2,2013-03-13 21:08:00,
2013-03-13 17:13:00,48.5,25.7,29.69,WNW,296,7.4,13.0,41,0.00,,,0.00,WUHU216DAVISVP2,2013-03-13 21:13:00,
2013-03-13 17:18:00,48.1,24.1,29.70,WNW,282,11.0,16.0,39,0.00,,,0.00,WUHU216DAVISVP2,2013-03-13 21:18:00,
2013-03-13 17:23:00,47.7,23.7,29.70,NW,304,6.0,16.0,39,0.00,,,0.00,WUHU216DAVISVP2,2013-03-13 21:23:00,
2013-03-13 17:28:00,47.5,23.6,29.70,West,278,9.5,17.0,39,0.00,,,0.00,WUHU216DAVISVP2,2013-03-13 21:28:00,
2013-03-13 17:30:00,47.5,24.3,29.70,WNW,293,7.0,17.0,40,0.00,,,0.00,WUHU216DAVISVP2,2013-03-13 21:30:00,
2013-03-13 17:33:00,47.5,25.4,29.70,West,263,11.0,17.0,42,0.00,,,0.00,WUHU216DAVISVP2,2013-03-13 21:33:00,
2013-03-13 17:38:00,47.4,25.3,29.70,WNW,296,6.1,17.0,42,0.00,,,0.00,WUHU216DAVISVP2,2013-03-13 21:38:00,
2013-03-13 17:43:00,47.3,24.8,29.70,WNW,289,6.5,17.0,41,0.00,,,0.00,WUHU216DAVISVP2,2013-03-13 21:43:00,
2013-03-13 17:48:00,47.1,24.0,29.70,NNW,340,10.0,17.0,40,0.00,,,0.00,WUHU216DAVISVP2,2013-03-13 21:48:00,
2013-03-13 17:53:00,46.8,24.3,29.70,WNW,291,9.7,17.0,41,0.00,,,0.00,WUHU216DAVISVP2,2013-03-13 21:53:00,
2013-03-13 17:58:00,46.4,24.5,29.70,NW,313,3.3,17.0,42,0.00,,,0.00,WUHU216DAVISVP2,2013-03-13 21:58:00,
2013-03-13 18:00:00,46.3,24.4,29.71,NW,315,7.0,18.0,42,0.00,,,0.00,WUHU216DAVISVP2,2013-03-13 22:00:00,
2013-03-13 18:03:00,46.2,24.2,29.71,NW,305,6.8,18.0,42,0.00,,,0.00,WUHU216DAVISVP2,2013-03-13 22:03:00,
2013-03-13 18:08:00,46.2,24.2,29.71,WNW,302,7.0,18.0,42,0.00,,,0.00,WUHU216DAVISVP2,2013-03-13 22:08:00,
2013-03-13 18:13:00,46.1,24.1,29.71,WNW,295,6.0,18.0,42,0.00,,,0.00,WUHU216DAVISVP2,2013-03-13 22:13:00,
2013-03-13 18:18:00,45.9,24.5,29.71,WNW,297,4.4,13.0,43,0.00,,,0.00,WUHU216DAVISVP2,2013-03-13 22:18:00,
2013-03-13 18:23:00,45.7,23.7,29.72,NW,314,11.0,15.0,42,0.00,,,0.00,WUHU216DAVISVP2,2013-03-13 22:23:00,
2013-03-13 18:28:00,45.2,24.4,29.72,WNW,288,6.0,15.0,44,0.00,,,0.00,WUHU216DAVISVP2,2013-03-13 22:28:00,
2013-03-13 18:30:00,45.1,23.9,29.72,WNW,293,6.0,15.0,43,0.00,,,0.00,WUHU216DAVISVP2,2013-03-13 22:30:00,
2013-03-13 18:33:00,45.1,23.8,29.72,NW,308,9.5,15.0,43,0.01,,,0.01,WUHU216DAVISVP2,2013-03-13 22:33:00,
2013-03-13 18:38:00,44.8,24.1,29.72,West,269,12.0,15.0,44,0.01,,,0.01,WUHU216DAVISVP2,2013-03-13 22:38:00,
2013-03-13 18:43:00,44.6,23.9,29.72,WNW,285,8.3,15.0,44,0.01,,,0.01,WUHU216DAVISVP2,2013-03-13 22:43:00,
2013-03-13 18:48:00,44.2,24.1,29.73,WNW,298,7.0,15.0,45,0.01,,,0.01,WUHU216DAVISVP2,2013-03-13 22:48:00,
2013-03-13 18:53:00,44.1,24.5,29.73,West,275,7.0,15.0,46,0.01,,,0.01,WUHU216DAVISVP2,2013-03-13 22:53:00,
2013-03-13 18:58:00,43.8,25.3,29.73,WNW,291,4.0,15.0,48,0.01,,,0.01,WUHU216DAVISVP2,2013-03-13 22:58:00,
2013-03-13 19:00:00,43.7,24.2,29.73,WNW,293,6.0,15.0,46,0.01,,,0.01,WUHU216DAVISVP2,2013-03-13 23:00:00,
2013-03-13 19:03:00,43.6,24.1,29.73,WNW,292,5.0,14.0,46,0.01,,,0.01,WUHU216DAVISVP2,2013-03-13 23:03:00,
2013-03-13 19:08:00,43.4,23.9,29.73,WNW,298,3.3,14.0,46,0.01,,,0.01,WUHU216DAVISVP2,2013-03-13 23:08:00,
2013-03-13 19:13:00,43.3,24.3,29.73,WNW,296,4.0,11.0,47,0.01,,,0.01,WUHU216DAVISVP2,2013-03-13 23:13:00,
2013-03-13 19:18:00,42.9,24.5,29.73,NW,305,3.2,11.0,48,0.01,,,0.01,WUHU216DAVISVP2,2013-03-13 23:18:00,
2013-03-13 19:23:00,42.6,24.2,29.73,WNW,302,2.1,9.0,48,0.01,,,0.01,WUHU216DAVISVP2,2013-03-13 23:23:00,
2013-03-13 19:28:00,42.2,24.3,29.74,WNW,302,0.0,9.0,49,0.00,,,0.01,WUHU216DAVISVP2,2013-03-13 23:28:00,
2013-03-13 19:30:00,42.1,24.3,29.74,WNW,293,3.0,11.0,49,0.00,,,0.01,WUHU216DAVISVP2,2013-03-13 23:30:00,
2013-03-13 19:33:00,42.0,24.2,29.74,WNW,302,1.0,9.0,49,0.00,,,0.01,WUHU216DAVISVP2,2013-03-13 23:33:00,
2013-03-13 19:38:00,41.9,24.1,29.74,WNW,302,1.8,4.0,49,0.00,,,0.01,WUHU216DAVISVP2,2013-03-13 23:38:00,
2013-03-13 19:43:00,41.8,24.0,29.74,WNW,302,1.7,4.0,49,0.00,,,0.01,WUHU216DAVISVP2,2013-03-13 23:43:00,
2013-03-13 19:48:00,41.5,23.7,29.74,WNW,298,1.8,4.0,49,0.00,,,0.01,WUHU216DAVISVP2,2013-03-13 23:48:00,
2013-03-13 19:53:00,41.2,23.9,29.74,WNW,298,2.0,4.0,50,0.00,,,0.01,WUHU216DAVISVP2,2013-03-13 23:53:00,
2013-03-13 19:58:00,41.1,23.4,29.74,WNW,298,3.1,5.0,49,0.00,,,0.01,WUHU216DAVISVP2,2013-03-13 23:58:00,
2013-03-13 20:00:00,41.2,23.5,29.74,WNW,293,1.0,5.0,49,0.00,,,0.01,WUHU216DAVISVP2,2013-03-14 00:00:00,
2013-03-13 20:03:00,41.2,23.9,29.75,WNW,298,1.6,5.0,50,0.00,,,0.01,WUHU216DAVISVP2,2013-03-14 00:03:00,
2013-03-13 20:08:00,41.1,23.8,29.75,WNW,298,2.0,5.0,50,0.00,,,0.01,WUHU216DAVISVP2,2013-03-14 00:08:00,
2013-03-13 20:13:00,41.0,24.7,29.75,WNW,298,1.3,5.0,52,0.00,,,0.01,WUHU216DAVISVP2,2013-03-14 00:13:00,
2013-03-13 20:18:00,40.7,23.4,29.75,WNW,298,0.0,5.0,50,0.00,,,0.01,WUHU216DAVISVP2,2013-03-14 00:18:00,
2013-03-13 20:23:00,40.4,23.7,29.75,WNW,298,2.0,3.0,51,0.00,,,0.01,WUHU216DAVISVP2,2013-03-14 00:23:00,
2013-03-13 20:28:00,40.1,23.9,29.76,WNW,298,0.0,3.0,52,0.00,,,0.01,WUHU216DAVISVP2,2013-03-14 00:28:00,
2013-03-13 20:30:00,40.0,23.8,29.75,WNW,293,1.0,5.0,52,0.00,,,0.01,WUHU216DAVISVP2,2013-03-14 00:30:00,
2013-03-13 20:33:00,39.8,24.0,29.75,WNW,298,1.5,3.0,53,0.00,,,0.01,WUHU216DAVISVP2,2013-03-14 00:33:00,
2013-03-13 20:38:00,39.7,24.0,29.76,WNW,298,4.0,4.0,53,0.00,,,0.01,WUHU216DAVISVP2,2013-03-14 00:38:00,
2013-03-13 20:43:00,39.8,23.6,29.76,WNW,298,2.0,4.0,52,0.00,,,0.01,WUHU216DAVISVP2,2013-03-14 00:43:00,
2013-03-13 20:48:00,39.6,23.4,29.76,WNW,298,0.0,4.0,52,0.00,,,0.01,WUHU216DAVISVP2,2013-03-14 00:48:00,
2013-03-13 20:53:00,39.4,23.2,29.76,WNW,298,2.0,4.0,52,0.00,,,0.01,WUHU216DAVISVP2,2013-03-14 00:53:00,
2013-03-13 20:58:00,39.4,23.2,29.76,WNW,298,3.5,5.0,52,0.00,,,0.01,WUHU216DAVISVP2,2013-03-14 00:58:00,
2013-03-13 21:00:00,39.3,23.1,29.76,WNW,293,1.0,5.0,52,0.00,,,0.01,WUHU216DAVISVP2,2013-03-14 01:00:00,
2013-03-13 21:04:00,39.3,23.1,29.76,WNW,298,0.0,5.0,52,0.00,,,0.01,WUHU216DAVISVP2,2013-03-14 01:04:00,
2013-03-13 21:09:00,39.1,23.4,29.76,WNW,298,0.0,5.0,53,0.00,,,0.01,WUHU216DAVISVP2,2013-03-14 01:09:00,
2013-03-13 21:14:00,38.8,23.6,29.76,WNW,298,0.0,5.0,54,0.00,,,0.01,WUHU216DAVISVP2,2013-03-14 01:14:00,
2013-03-13 21:19:00,38.5,24.2,29.76,WNW,298,0.0,2.0,56,0.00,,,0.01,WUHU216DAVISVP2,2013-03-14 01:19:00,
2013-03-13 21:24:00,38.1,24.2,29.76,WNW,298,0.0,1.0,57,0.00,,,0.01,WUHU216DAVISVP2,2013-03-14 01:24:00,
2013-03-13 21:29:00,37.7,23.9,29.76,WNW,298,0.0,1.0,57,0.00,,,0.01,WUHU216DAVISVP2,2013-03-14 01:29:00,
2013-03-13 21:30:00,37.6,23.7,29.76,WNW,293,0.0,2.0,57,0.00,,,0.01,WUHU216DAVISVP2,2013-03-14 01:30:00,
2013-03-13 21:34:00,37.3,23.5,29.76,WNW,298,0.0,1.0,57,0.00,,,0.01,WUHU216DAVISVP2,2013-03-14 01:34:00,
2013-03-13 21:39:00,36.9,23.5,29.76,WNW,298,0.0,1.0,58,0.00,,,0.01,WUHU216DAVISVP2,2013-03-14 01:39:00,
2013-03-13 21:44:00,36.6,23.3,29.76,WNW,298,0.0,0.0,58,0.00,,,0.01,WUHU216DAVISVP2,2013-03-14 01:44:00,
2013-03-13 21:49:00,36.2,23.7,29.76,WNW,298,0.0,0.0,60,0.00,,,0.01,WUHU216DAVISVP2,2013-03-14 01:49:00,
2013-03-13 21:54:00,35.8,24.5,29.76,WNW,298,0.0,0.0,63,0.00,,,0.01,WUHU216DAVISVP2,2013-03-14 01:54:00,
2013-03-13 21:59:00,35.2,24.3,29.76,WNW,298,0.0,0.0,64,0.00,,,0.01,WUHU216DAVISVP2,2013-03-14 01:59:00,
2013-03-13 22:00:00,35.1,24.1,29.76,North,0,0.0,0.0,64,0.00,,,0.01,WUHU216DAVISVP2,2013-03-14 02:00:00,
2013-03-13 22:04:00,34.7,24.2,29.77,WNW,298,0.0,0.0,65,0.00,,,0.01,WUHU216DAVISVP2,2013-03-14 02:04:00,
2013-03-13 22:09:00,34.3,23.8,29.77,WNW,298,0.0,0.0,65,0.00,,,0.01,WUHU216DAVISVP2,2013-03-14 02:09:00,
2013-03-13 22:14:00,33.9,23.1,29.77,WNW,298,0.0,0.0,64,0.00,,,0.01,WUHU216DAVISVP2,2013-03-14 02:14:00,
2013-03-13 22:19:00,33.6,23.5,29.76,WNW,298,0.0,0.0,66,0.00,,,0.01,WUHU216DAVISVP2,2013-03-14 02:19:00,
2013-03-13 22:24:00,33.3,23.6,29.77,WNW,298,0.0,0.0,67,0.00,,,0.01,WUHU216DAVISVP2,2013-03-14 02:24:00,
2013-03-13 22:29:00,33.1,23.0,29.77,WNW,298,0.0,0.0,66,0.00,,,0.01,WUHU216DAVISVP2,2013-03-14 02:29:00,
2013-03-13 22:30:00,33.0,22.9,29.77,North,0,0.0,0.0,66,0.00,,,0.01,WUHU216DAVISVP2,2013-03-14 02:30:00,
2013-03-13 22:34:00,32.8,23.1,29.76,WNW,298,0.0,0.0,67,0.00,,,0.01,WUHU216DAVISVP2,2013-03-14 02:34:00,
2013-03-13 22:39:00,32.7,23.4,29.76,WNW,298,0.0,0.0,68,0.00,,,0.01,WUHU216DAVISVP2,2013-03-14 02:39:00,
2013-03-13 22:44:00,32.6,22.9,29.76,WNW,298,0.0,0.0,67,0.00,,,0.01,WUHU216DAVISVP2,2013-03-14 02:44:00,
2013-03-13 22:49:00,32.5,22.8,29.76,WNW,298,0.0,2.0,67,0.00,,,0.01,WUHU216DAVISVP2,2013-03-14 02:49:00,
2013-03-13 22:54:00,32.6,22.9,29.77,WNW,298,0.0,2.0,67,0.00,,,0.01,WUHU216DAVISVP2,2013-03-14 02:54:00,
2013-03-13 22:59:00,32.7,23.0,29.77,WNW,298,1.0,2.0,67,0.00,,,0.01,WUHU216DAVISVP2,2013-03-14 02:59:00,
2013-03-13 23:00:00,32.8,23.0,29.77,WNW,293,0.0,2.0,67,0.00,,,0.01,WUHU216DAVISVP2,2013-03-14 03:00:00,
2013-03-13 23:04:00,33.3,23.2,29.77,WNW,298,0.0,4.0,66,0.00,,,0.01,WUHU216DAVISVP2,2013-03-14 03:04:00,
2013-03-13 23:09:00,33.9,23.0,29.76,WNW,298,1.3,4.0,64,0.00,,,0.01,WUHU216DAVISVP2,2013-03-14 03:09:00,
2013-03-13 23:14:00,34.6,23.3,29.76,WNW,296,3.0,4.0,63,0.00,,,0.01,WUHU216DAVISVP2,2013-03-14 03:14:00,
2013-03-13 23:19:00,34.8,23.2,29.76,WNW,296,0.0,4.0,62,0.00,,,0.01,WUHU216DAVISVP2,2013-03-14 03:19:00,
2013-03-13 23:24:00,34.7,23.8,29.76,WNW,296,0.0,4.0,64,0.00,,,0.01,WUHU216DAVISVP2,2013-03-14 03:24:00,
2013-03-13 23:29:00,34.1,23.6,29.76,WNW,296,0.0,4.0,65,0.00,,,0.01,WUHU216DAVISVP2,2013-03-14 03:29:00,
2013-03-13 23:30:00,33.9,23.4,29.76,WNW,293,0.0,4.0,65,0.00,,,0.01,WUHU216DAVISVP2,2013-03-14 03:30:00,
2013-03-13 23:34:00,33.2,23.5,29.76,WNW,296,0.0,1.0,67,0.00,,,0.01,WUHU216DAVISVP2,2013-03-14 03:34:00,
2013-03-13 23:39:00,32.4,24.1,29.75,WNW,296,0.0,0.0,71,0.00,,,0.01,WUHU216DAVISVP2,2013-03-14 03:39:00,
2013-03-13 23:44:00,31.7,24.0,29.75,WNW,296,0.0,0.0,73,0.00,,,0.01,WUHU216DAVISVP2,2013-03-14 03:44:00,
2013-03-13 23:49:00,31.1,23.5,29.75,WNW,296,0.0,0.0,73,0.00,,,0.01,WUHU216DAVISVP2,2013-03-14 03:49:00,
2013-03-13 23:54:00,30.8,23.5,29.75,WNW,296,0.0,0.0,74,0.00,,,0.01,WUHU216DAVISVP2,2013-03-14 03:54:00,
2013-03-13 23:59:00,30.3,23.1,29.75,WNW,296,0.0,0.0,74,0.00,,,0.01,WUHU216DAVISVP2,2013-03-14 03:59:00,